Theta_e
281 281 282 282 282 284 285 286 288 292 295 298 300 307 310 310 310 309 308 306 304 297 297 296 298 298 299 297 293 294 293 293
278 281 281 282 282 283 283 284 285 288 291 292 293 296 299 306 307 303 296 298 300 298 293 294 296 293 295 295 294 294 293 293
276 278 279 280 281 281 282 283 284 286 288 288 289 290 289 293 294 297 299 299 297 296 295 293 293 295 296 293 292 294 292 291
274 275 278 278 279 280 281 282 282 284 285 286 286 287 287 287 289 291 297 298 295 296 296 294 293 293 294 294 292 292 291 290
273 274 276 277 277 278 279 280 280 280 282 283 284 285 286 286 287 288 288 292 295 295 295 295 292 291 290 289 289 289 289 289
272 272 274 275 275 276 277 276 279 278 279 280 282 284 285 286 286 287 287 287 288 288 289 289 290 290 289 289 289 289 288 288
271 272 273 274 274 275 275 276 277 277 277 279 281 282 282 284 285 286 286 286 286 287 288 286 286 292 293 291 289 288 289 288
270 271 272 273 275 274 274 274 275 275 276 277 278 279 280 282 283 283 284 285 285 286 286 286 286 292 292 291 288 288 288 288
270 271 272 273 274 274 275 274 273 273 274 275 276 277 278 279 280 281 282 283 284 285 285 285 285 292 292 290 288 288 288 288
269 270 271 271 273 273 272 273 273 272 272 272 272 274 275 276 278 279 281 281 282 283 283 284 285 290 291 290 286 286 286 287
266 268 268 269 272 272 271 270 270 271 272 272 272 272 271 272 273 277 279 280 281 282 282 283 283 287 290 290 286 285 285 285
263 263 264 267 269 268 268 267 269 270 270 271 271 272 272 271 272 272 273 274 276 278 279 280 282 284 288 290 286 285 284 284
261 261 261 265 266 265 264 266 267 268 270 270 271 272 271 268 269 268 269 269 270 270 274 278 280 284 287 289 288 287 284 283
262 262 262 262 263 263 263 264 264 265 267 268 269 271 270 268 269 268 268 268 269 271 269 271 278 280 287 288 288 287 283 283
264 264 264 264 264 262 263 262 260 262 264 266 267 268 270 271 271 268 268 268 270 269 268 268 272 275 280 283 284 285 283 284
264 264 263 263 262 260 261 259 261 262 264 264 265 264 266 269 268 272 270 272 275 271 266 266 267 274 280 282 282 278 281 281
262 262 261 260 259 259 254 254 254 261 262 262 263 263 265 264 266 274 277 279 279 279 278 271 278 281 281 282 285 285 285 277
260 259 258 257 257 255 251 249 251 254 258 258 259 260 260 260 261 262 268 276 278 280 280 281 280 281 282 282 283 286 284 274
253 252 251 251 253 254 248 247 248 248 253 252 255 254 255 257 258 256 257 259 263 271 277 279 280 282 283 283 283 282 280 277
248 251 250 251 255 249 246 248 248 252 253 251 251 253 254 254 256 255 255 256 255 259 270 270 277 281 282 283 275 275 277 277
Wind_Speed
9 9 8 7 7 10 9 9 7 8 8 6 7 6 7 8 9 10 10 11 11 9 9 9 11 8 9 8 7 9 7 7
13 8 7 8 9 10 10 10 9 7 6 8 8 8 6 5 8 8 6 9 10 11 9 12 12 9 9 8 10 12 10 7
13 10 9 11 8 14 12 11 10 7 8 11 9 8 7 3 2 7 8 9 12 12 11 11 12 13 14 11 8 11 10 11
13 11 11 12 13 14 13 11 11 11 11 10 10 10 8 6 3 1 7 7 7 10 12 12 12 12 12 11 11 11 10 10
12 13 13 14 14 14 12 10 10 11 12 11 10 8 7 6 5 2 2 5 9 9 10 10 10 10 10 9 9 8 7 8
12 11 13 13 13 12 11 13 11 11 11 10 9 8 8 7 6 5 4 4 4 3 2 6 8 8 11 10 10 10 9 8
11 12 13 13 12 10 9 11 10 13 11 10 10 9 8 7 6 6 5 5 2 4 5 3 1 9 15 12 10 9 9 9
12 12 11 12 11 10 9 9 12 12 12 13 11 9 8 7 7 7 5 4 3 3 3 4 4 9 10 11 6 8 8 8
11 12 13 11 10 9 10 10 13 13 12 12 10 9 9 8 8 7 4 4 3 3 3 2 2 8 12 14 7 7 8 9
9 9 11 12 12 11 13 13 13 12 11 9 8 8 9 9 8 6 5 5 5 3 3 2 1 4 7 9 5 4 6 6
10 10 11 12 10 11 11 10 11 10 9 7 7 7 8 7 6 5 4 4 4 5 5 4 1 3 6 7 4 4 4 4
7 6 7 9 8 9 8 10 9 7 6 7 8 7 7 6 5 5 5 5 5 5 4 5 4 4 6 9 6 4 4 4
4 4 4 5 5 5 7 7 8 8 7 7 7 6 6 6 6 5 6 5 5 5 4 4 5 6 6 10 10 10 5 4
2 4 3 3 4 5 6 7 7 6 7 7 7 6 5 5 6 4 5 4 4 4 4 4 5 5 9 9 7 8 3 3
5 5 7 8 8 5 6 6 5 5 5 5 6 7 6 4 3 3 4 4 4 4 4 3 3 4 4 2 2 3 3 6
5 5 5 5 5 5 6 6 6 5 5 6 4 5 5 4 2 3 2 2 4 2 2 2 3 2 5 4 2 2 3 4
4 5 6 6 6 6 5 4 3 4 4 3 4 4 4 4 5 9 7 10 9 8 5 2 6 8 6 6 4 8 10 3
4 6 7 7 8 5 3 1 1 2 5 4 4 3 3 3 3 5 9 10 6 11 8 10 8 8 6 7 7 10 10 3
2 4 4 5 7 6 4 3 2 2 3 2 3 2 3 2 2 1 1 3 4 8 10 10 11 9 7 7 6 3 4 3
3 4 3 5 8 3 1 2 4 4 3 2 2 3 3 2 3 1 1 2 3 4 6 7 13 10 8 3 3 3 4 4
Wind_Direction
349 12 17 22 35 50 41 39 11 50 58 74 67 93 134 154 167 171 164 159 169 166 172 164 170 200 190 177 168 174 182 177
347 340 17 28 41 56 49 42 34 36 64 63 52 46 50 157 167 159 141 151 167 175 162 171 173 178 174 214 181 181 178 178
340 339 25 39 24 52 37 38 33 23 56 59 52 47 46 13 170 144 164 171 170 170 179 178 177 185 188 188 181 187 184 183
346 352 28 29 27 48 34 33 30 32 40 50 46 42 28 17 333 148 159 185 169 173 183 186 185 183 192 189 185 187 190 184
352 6 22 28 28 36 32 32 37 44 37 35 32 41 32 19 13 56 88 164 178 186 191 183 183 184 180 170 178 183 182 178
354 6 27 28 30 27 31 25 33 49 44 31 23 29 30 24 16 31 46 109 98 144 190 168 166 182 182 179 181 183 181 180
3 11 24 28 28 28 31 34 35 45 38 32 30 25 22 15 17 35 36 42 48 124 129 108 114 186 190 171 181 181 187 190
4 17 20 24 24 30 23 31 37 41 33 30 22 18 13 13 27 31 22 32 41 68 113 154 141 165 176 168 169 178 185 188
2 5 11 14 18 25 35 40 40 38 30 26 13 13 10 20 20 16 8 25 33 48 66 88 148 184 177 173 166 174 181 187
358 5 4 6 7 19 26 28 31 26 23 10 9 12 13 16 7 6 5 13 15 18 40 98 168 221 200 174 156 166 180 178
356 3 12 1 6 29 26 24 22 10 4 357 7 18 13 360 358 355 352 6 7 18 16 354 318 263 235 194 164 174 154 157
7 8 354 348 360 28 21 21 350 344 347 2 6 7 12 355 360 352 3 16 16 17 10 8 347 298 260 237 171 175 165 175
9 1 327 349 3 28 26 341 342 347 5 10 9 9 7 9 357 4 13 21 12 8 2 2 353 331 248 243 167 162 162 170
343 307 304 341 13 13 350 352 355 359 4 3 359 6 10 18 4 2 10 23 2 10 1 346 352 355 37 108 139 163 137 149
356 355 357 359 6 10 358 351 349 356 358 358 6 355 358 1 14 10 4 5 7 358 351 334 347 353 354 33 51 167 135 167
344 335 336 348 348 351 357 359 352 346 350 355 350 355 345 342 308 336 274 266 333 305 261 338 331 309 323 332 114 122 152 125
316 315 331 345 339 337 1 3 351 341 349 347 339 340 339 344 339 347 350 344 330 325 315 270 286 304 298 285 239 175 156 66
322 327 327 327 323 311 318 17 354 322 326 329 333 329 342 346 355 344 333 349 350 357 350 340 318 307 286 248 248 195 151 106
270 267 271 293 292 299 320 335 297 277 286 280 293 291 306 308 303 290 343 326 317 336 334 343 338 310 286 240 218 205 130 124
278 291 325 314 294 303 288 289 297 305 301 288 282 282 279 277 295 287 313 296 287 325 341 346 341 10 34 9 113 122 133 132